World > North America > United States > Texas > Perryville

Hourly Perryville, TX Regional Weather

Feedback E-mail the Weather

Quick WX

Perryville, TX Weather Maps

°F °C°F °C
Perryville Weather Map
UTC Time: 8/10/2022, 19:50
Your Time:

Perryville, TX Regional Weather

Expires:202208102000;;806578
ASUS44 KFWD 101915
RWRTX 
NORTH TEXAS HOURLY WEATHER ROUNDUP
NATIONAL WEATHER SERVICE FORT WORTH TX
200 PM CDT WED AUG 10 2022

NOTE: "FAIR" INDICATES FEW OR NO CLOUDS BELOW 12,000 FEET WITH NO
SIGNIFICANT WEATHER AND/OR OBSTRUCTIONS TO VISIBILITY.


TXZ095>097-106>112-122>126-135>138-148>153-164>167-102000-
EAST TEXAS
  
CITY           SKY/WX    TMP DP  RH WIND       PRES   REMARKS
PARIS          FAIR      93  72  50 VRB5      30.04F HX 101           
SULPHUR SPRNGS FAIR      94  70  45 NW3       30.05F HX 100           
MOUNT PLEASANT PTSUNNY   92  73  52 E5        30.04F HX 101           
ATLANTA        MOCLDY    89  76  67 CALM      30.05F HX 100           
GILMER         FAIR      91  71  51 E10       30.05F HX  98           
MINEOLA        FAIR      95  70  43 N10       30.03F HX 101           
TYLER          FAIR      97  70  41 SW6       30.04F HX 103           
LONGVIEW       FAIR      80  71  74 SE12      30.07F                  
MARSHALL       FAIR      77  74  88 S6        30.09F                  
ATHENS         PTSUNNY   99  68  36 SW5       30.01F HX 104           
PALESTINE      PTSUNNY   95  68  41 CALM      30.02F HX  99           
HENDERSON      FAIR      79  70  74 E5        30.09F                  
CENTER         LGT RAIN  82  75  78 W6        30.10S                  
NACOGDOCHES    TSTM      72  70  94 NE13G22   30.12R FOG              
LUFKIN         FAIR      94  71  47 N3        30.04F HX 101           
$$

SUPPLEMENTAL OBSERVATIONS (NWS FORT WORTH AREA)
  
CITY           SKY/WX    TMP DP  RH WIND       PRES   REMARKS
CADDO GRASSLND   N/A     93  72  49 NE5         N/A  HX 100           
LBJ GRASSLAND    N/A     95  66  38 W7          N/A  HX  98           
POSSUM KINGDOM   N/A     97  61  30 W8          N/A  HX  97           
GRANBURY         N/A     90  66  45 W7G16       N/A  HX  92           
COMANCHE         N/A     95  63  34 W12G23      N/A  HX  96           
MCGREGOR         N/A    100  63  28 S12G20      N/A  HX 102           
TEMPLE           N/A     99  64  32 SW3G14      N/A  HX 101           
LAKE LIMESTONE   N/A    100  72  39 E2G14       N/A  HX 109           
PALESTINE        N/A     99  66  34 W2          N/A  HX 102           
$$

SUPPLEMENTAL OBSERVATIONS (NWS NORMAN AREA)
  
CITY           SKY/WX    TMP DP  RH WIND       PRES   REMARKS
GOODLETT         N/A     90  66  46 CALM      30.14F HX  92           
ODELL            N/A     89  70  52 W8        30.14F HX  94           
CROWELL          N/A     93  69  44 NW13      30.14F HX  97           
KNOX CITY        N/A     85  67  55 NW12      30.16F                  
SEYMOUR          N/A     90  69  51 W10       30.14F HX  94           
MILLERS CREEK    N/A     91  64  40 NW16G22     N/A  HX  93           
$$

SUPPLEMENTAL OBSERVATIONS (NWS SAN ANGELO AREA)
  
CITY           SKY/WX    TMP DP  RH WIND       PRES   REMARKS
WEINERT          N/A     84  71  63 NW9       30.16F                  
HASKELL          N/A     87  73  62 W8        30.16F HX  93           
THROCKMORTON     N/A     91  69  49 SW10      30.13F HX  96           
STAMFORD       LGT RAIN  78  73  85 W10       30.17F                  
CLYDE            N/A     88  66  47 N10       30.20F HX  90           
HAMBY            N/A     88  66  48 NW8G16      N/A  HX  90           
IVIE RESERVOIR   N/A    N/A N/A N/A VRB13G24    N/A                   
COLORADO BEND    N/A     99  59  26 E7G15       N/A  HX  98           
$$

SUPPLEMENTAL OBSERVATIONS (NWS SHREVEPORT AREA)
  
CITY           SKY/WX    TMP DP  RH WIND       PRES   REMARKS
TEXARKANA        N/A     90  75  62 NE3         N/A  HX 100           
CADDO LAKE       N/A     88  75  66 SE1         N/A  HX  97           
LUFKIN           N/A     88  70  55 MISG        N/A  HX  92           
N SABINE NF      N/A     88  73  62 MISG        N/A  HX  96           
$$

SUPPLEMENTAL OBSERVATIONS ARE A COLLECTION OF AUTOMATED INSTRUMENTS
THAT ARE MAINTAINED BY A VARIETY OF FEDERAL AND STATE AGENCIES. 
CERTAIN ELEMENTS...SUCH AS HUMIDITY VALUES AND SUSTAINED WIND 
SPEEDS...MAY BE APPROXIMATED.

  

SKY/WX - Weather  TMP - Temperature  DP - Dew Point  RH - Humidity
WIND - Wind Direction/Speed PRES - Barometric Pressure VSB - Visibility
WCI - Wind Chill Index E13G22 Wind - East Wind 13 mph/Gusts of 22 mph

Trending Headlines

Perryville Radar Loop



Perryville Quick Facts


National Two Day Weather Forecast


E-mail the Perryville Weather Forecast

Voice your opinion or tell us about page issues...